User: anonymous   Login
Location: Bottom School (historical)
(37.9078°N, 89.3593°W)
Time: 19:59:34
(UTC+00:00)
Language:

UNISAT 6 - Orbit

View from above orbital plane
View from above orbital plane
View from above satellite
View from above satellite

Ground track
Ground track

The orbit data is extracted from the following two-line orbital elements,

1 40012U 14033C   23337.79309342  .00005023  00000-0  68607-3 0  9993
2 40012  97.6825 143.7678 0053589 224.1758 135.5168 14.78024688508810
Epoch (UTC): 03 December 2023 19:02:03
Eccentricity: 0.0053589
inclination: 97.6825°
perigee height: 598 km
apogee height: 673 km
right ascension of ascending node: 143.7678°
argument of perigee: 224.1758°
revolutions per day: 14.78024688
mean anomaly at epoch: 135.5168°
orbit number at epoch: 50881

The dashed part of the orbit path shows where the satellite is in the earth's shadow,  

DLR